Precipitable_Water
0.71 0.69 0.65 0.62 0.60 0.60 0.60 0.60 0.62 0.60 0.59 0.58 0.58 0.57 0.56 0.55 0.57 0.55 0.54 0.54 0.54 0.52
0.69 0.70 0.70 0.70 0.68 0.67 0.67 0.66 0.65 0.64 0.61 0.60 0.59 0.60 0.58 0.58 0.56 0.59 0.60 0.60 0.59 0.57
0.65 0.69 0.72 0.74 0.71 0.70 0.70 0.69 0.68 0.66 0.64 0.62 0.62 0.63 0.62 0.60 0.59 0.59 0.62 0.64 0.61 0.58
0.65 0.68 0.72 0.73 0.74 0.72 0.72 0.71 0.68 0.67 0.67 0.64 0.66 0.64 0.62 0.62 0.62 0.61 0.64 0.64 0.64 0.63
0.66 0.67 0.69 0.71 0.72 0.73 0.70 0.71 0.73 0.68 0.66 0.65 0.66 0.64 0.63 0.62 0.62 0.62 0.61 0.64 0.65 0.64
0.64 0.65 0.67 0.70 0.71 0.72 0.72 0.73 0.75 0.75 0.67 0.72 0.67 0.63 0.66 0.64 0.63 0.63 0.64 0.64 0.63 0.64
0.65 0.66 0.69 0.70 0.70 0.71 0.75 0.76 0.72 0.73 0.73 0.73 0.72 0.68 0.70 0.63 0.63 0.64 0.65 0.66 0.66 0.62
0.66 0.69 0.69 0.70 0.72 0.73 0.73 0.73 0.73 0.71 0.70 0.70 0.68 0.65 0.62 0.64 0.64 0.65 0.64 0.65 0.63 0.61
0.68 0.68 0.69 0.70 0.72 0.72 0.71 0.71 0.71 0.69 0.69 0.67 0.66 0.68 0.69 0.68 0.63 0.63 0.63 0.60 0.59 0.60
0.67 0.66 0.68 0.70 0.70 0.69 0.67 0.68 0.66 0.66 0.67 0.66 0.67 0.68 0.67 0.64 0.61 0.58 0.58 0.58 0.57 0.57
0.67 0.67 0.68 0.69 0.68 0.66 0.67 0.65 0.64 0.65 0.65 0.64 0.65 0.64 0.61 0.59 0.56 0.56 0.56 0.57 0.56 0.56
0.64 0.65 0.66 0.66 0.66 0.65 0.64 0.64 0.63 0.64 0.63 0.62 0.60 0.59 0.57 0.55 0.53 0.52 0.53 0.54 0.55 0.55
0.60 0.61 0.62 0.64 0.64 0.65 0.65 0.62 0.63 0.61 0.61 0.59 0.56 0.55 0.54 0.52 0.52 0.51 0.52 0.52 0.52 0.54
0.57 0.57 0.61 0.61 0.62 0.62 0.61 0.60 0.59 0.58 0.58 0.57 0.56 0.54 0.52 0.51 0.48 0.50 0.48 0.47 0.46 0.52
Wind_Speed
32 32 31 30 29 28 26 25 24 23 22 21 21 21 21 20 20 19 19 19 19 19
34 34 33 32 30 29 27 26 24 23 23 22 21 21 21 21 21 20 20 20 20 20
34 34 33 32 31 29 28 26 25 24 23 23 22 21 20 20 21 20 20 21 22 22
33 32 31 31 30 29 28 27 25 25 24 23 22 21 21 20 20 20 21 21 23 24
31 30 29 29 28 28 27 27 27 24 23 23 22 21 21 20 20 20 20 21 21 21
29 28 27 26 26 26 26 26 25 25 25 25 22 22 21 21 20 19 19 20 20 21
27 26 25 24 24 25 26 25 25 25 26 24 23 23 22 20 20 20 19 18 19 19
25 24 23 22 23 23 22 23 23 22 22 22 20 22 20 20 20 20 20 20 19 18
23 21 20 20 20 18 20 19 19 18 16 16 17 18 19 19 20 21 20 19 17 17
22 20 20 18 17 17 17 17 17 18 18 18 19 19 20 20 19 19 17 17 16 16
22 22 21 19 18 17 17 18 18 18 19 18 19 18 18 18 18 17 17 16 16 15
22 23 22 21 18 18 18 18 19 18 18 17 17 16 16 16 15 15 15 15 15 15
22 22 22 22 22 20 19 18 18 18 17 16 16 15 14 14 13 13 13 14 14 14
20 21 21 21 21 21 18 18 17 17 16 15 14 13 12 12 11 11 11 11 11 12
Wind_Direction
286 284 281 280 277 274 272 271 269 266 263 260 258 256 254 254 256 257 255 256 258 259
286 282 278 277 274 271 269 268 265 264 261 259 257 256 254 255 255 255 257 259 260 261
285 281 277 274 271 268 265 263 262 261 258 257 255 255 254 255 255 256 258 262 264 261
285 281 276 271 268 264 262 261 260 258 255 254 252 253 254 255 255 257 263 264 265 266
285 281 275 270 265 262 260 259 259 255 253 250 251 254 253 254 257 260 263 267 268 271
284 279 274 269 263 259 260 259 256 254 250 252 248 253 252 253 257 262 267 269 271 272
282 279 274 267 262 261 262 258 255 253 252 250 252 249 251 252 255 262 266 269 273 271
280 277 273 265 264 262 259 257 253 252 249 244 248 245 244 252 257 263 265 270 270 269
277 274 269 265 259 256 261 249 246 243 240 234 241 245 249 253 259 265 263 264 265 266
273 267 265 262 259 253 248 241 241 242 243 245 248 253 253 256 260 260 260 259 260 263
268 263 260 258 252 252 250 244 244 246 247 250 253 252 253 254 257 256 255 256 258 259
267 262 257 252 248 250 249 248 247 247 248 248 250 250 250 253 254 253 252 253 255 258
266 261 256 250 250 249 248 247 245 243 246 246 245 248 247 248 251 248 250 253 254 258
266 261 253 250 244 243 244 241 239 238 241 242 240 239 239 241 246 246 248 251 255 258